Time,TemperatureF,DewpointF,PressureIn,WindDirection,WindDirectionDegrees,WindSpeedMPH,WindSpeedGustMPH,Humidity,HourlyPrecipIn,Conditions,Clouds,dailyrainin,SolarRadiationWatts/m^2,SoftwareType,DateUTC
2013-01-14 00:02:00,32.0,14.0,-100.00,East,82,2.0,6.0,46,0.00,,,0.00,0.000000,,2013-01-14 08:02:00,
2013-01-14 00:22:00,33.0,14.0,-100.00,NE,45,6.0,12.0,45,0.00,,,0.00,0.000000,,2013-01-14 08:22:00,
2013-01-14 00:33:00,33.0,14.0,-100.00,NE,45,6.0,12.0,45,0.00,,,0.00,0.000000,,2013-01-14 08:33:00,
2013-01-14 00:43:00,33.0,14.0,-100.00,NE,45,6.0,12.0,45,0.00,,,0.00,0.000000,,2013-01-14 08:43:00,
2013-01-14 00:53:00,33.0,14.0,-100.00,NE,45,6.0,12.0,45,0.00,,,0.00,0.000000,,2013-01-14 08:53:00,
2013-01-14 01:02:00,33.0,14.0,-100.00,NE,45,6.0,12.0,45,0.00,,,0.00,0.000000,,2013-01-14 09:02:00,
2013-01-14 01:34:00,32.0,12.0,-100.00,NE,40,8.0,15.0,43,0.00,,,0.00,0.000000,,2013-01-14 09:34:00,
2013-01-14 01:43:00,32.0,12.0,-100.00,NE,40,8.0,15.0,43,0.00,,,0.00,0.000000,,2013-01-14 09:43:00,
2013-01-14 01:53:00,32.0,12.0,-100.00,NE,40,8.0,15.0,43,0.00,,,0.00,0.000000,,2013-01-14 09:53:00,
2013-01-14 02:02:00,32.0,12.0,-100.00,NE,40,8.0,15.0,43,0.00,,,0.00,0.000000,,2013-01-14 10:02:00,
2013-01-14 02:33:00,30.0,4.0,-100.00,ENE,63,6.0,16.0,33,0.00,,,0.00,0.000000,,2013-01-14 10:33:00,
2013-01-14 02:43:00,30.0,4.0,-100.00,ENE,63,6.0,16.0,33,0.00,,,0.00,0.000000,,2013-01-14 10:43:00,
2013-01-14 02:52:00,30.0,4.0,-100.00,ENE,63,6.0,16.0,33,0.00,,,0.00,0.000000,,2013-01-14 10:52:00,
2013-01-14 03:01:00,30.0,4.0,-100.00,ENE,63,6.0,16.0,33,0.00,,,0.00,0.000000,,2013-01-14 11:01:00,
2013-01-14 03:33:00,29.0,5.0,-100.00,ENE,58,6.0,12.0,35,0.00,,,0.00,0.000000,,2013-01-14 11:33:00,
2013-01-14 03:43:00,29.0,5.0,-100.00,ENE,58,6.0,12.0,35,0.00,,,0.00,0.000000,,2013-01-14 11:43:00,
2013-01-14 03:53:00,29.0,5.0,-100.00,ENE,58,6.0,12.0,35,0.00,,,0.00,0.000000,,2013-01-14 11:53:00,
2013-01-14 04:02:00,29.0,5.0,-100.00,ENE,58,6.0,12.0,35,0.00,,,0.00,0.000000,,2013-01-14 12:02:00,
2013-01-14 04:23:00,29.0,4.0,-100.00,NE,45,5.0,11.0,34,0.00,,,0.00,0.000000,,2013-01-14 12:23:00,
2013-01-14 04:33:00,29.0,4.0,-100.00,NE,45,5.0,11.0,34,0.00,,,0.00,0.000000,,2013-01-14 12:33:00,
2013-01-14 04:43:00,29.0,4.0,-100.00,NE,45,5.0,11.0,34,0.00,,,0.00,0.000000,,2013-01-14 12:43:00,
2013-01-14 04:53:00,29.0,4.0,-100.00,NE,45,5.0,11.0,34,0.00,,,0.00,0.000000,,2013-01-14 12:53:00,
2013-01-14 05:02:00,29.0,4.0,-100.00,NE,45,5.0,11.0,34,0.00,,,0.00,0.000000,,2013-01-14 13:02:00,
2013-01-14 05:23:00,27.0,5.0,-100.00,NE,41,6.0,14.0,38,0.00,,,0.00,0.000000,,2013-01-14 13:23:00,
2013-01-14 05:33:00,27.0,5.0,-100.00,NE,41,6.0,14.0,38,0.00,,,0.00,0.000000,,2013-01-14 13:33:00,
2013-01-14 05:43:00,27.0,5.0,-100.00,NE,41,6.0,14.0,38,0.00,,,0.00,0.000000,,2013-01-14 13:43:00,
2013-01-14 05:53:00,27.0,5.0,-100.00,NE,41,6.0,14.0,38,0.00,,,0.00,0.000000,,2013-01-14 13:53:00,
2013-01-14 06:02:00,27.0,5.0,-100.00,NE,41,6.0,14.0,38,0.00,,,0.00,0.000000,,2013-01-14 14:02:00,
2013-01-14 06:23:00,27.0,3.0,-100.00,NE,53,6.0,10.0,35,0.00,,,0.00,0.000000,,2013-01-14 14:23:00,
2013-01-14 06:33:00,27.0,3.0,-100.00,NE,53,6.0,10.0,35,0.00,,,0.00,0.000000,,2013-01-14 14:33:00,
2013-01-14 06:43:00,27.0,3.0,-100.00,NE,53,6.0,10.0,35,0.00,,,0.00,0.000000,,2013-01-14 14:43:00,
2013-01-14 06:53:00,27.0,3.0,-100.00,NE,53,6.0,10.0,35,0.00,,,0.00,0.000000,,2013-01-14 14:53:00,
2013-01-14 07:02:00,27.0,3.0,-100.00,NE,53,6.0,10.0,35,0.00,,,0.00,0.000000,,2013-01-14 15:02:00,
2013-01-14 07:23:00,27.0,2.0,-100.00,NE,51,6.0,11.0,33,0.00,,,0.00,0.000000,,2013-01-14 15:23:00,
2013-01-14 07:33:00,27.0,2.0,-100.00,NE,51,6.0,11.0,33,0.00,,,0.00,0.000000,,2013-01-14 15:33:00,
2013-01-14 07:43:00,27.0,2.0,-100.00,NE,51,6.0,11.0,33,0.00,,,0.00,0.000000,,2013-01-14 15:43:00,
2013-01-14 07:53:00,27.0,2.0,-100.00,NE,51,6.0,11.0,33,0.00,,,0.00,0.000000,,2013-01-14 15:53:00,
2013-01-14 08:02:00,27.0,2.0,-100.00,NE,51,6.0,11.0,33,0.00,,,0.00,0.000000,,2013-01-14 16:02:00,
2013-01-14 08:33:00,30.0,2.0,-100.00,NE,45,9.0,14.0,29,0.00,,,0.00,103.000000,,2013-01-14 16:33:00,
2013-01-14 08:43:00,30.0,2.0,-100.00,NE,45,9.0,14.0,29,0.00,,,0.00,103.000000,,2013-01-14 16:43:00,
2013-01-14 08:53:00,30.0,2.0,-100.00,NE,45,9.0,14.0,29,0.00,,,0.00,103.000000,,2013-01-14 16:53:00,
2013-01-14 09:02:00,30.0,2.0,-100.00,NE,45,9.0,14.0,29,0.00,,,0.00,103.000000,,2013-01-14 17:02:00,
2013-01-14 09:23:00,35.0,3.0,-100.00,ESE,120,5.0,18.0,25,0.00,,,0.00,267.000000,,2013-01-14 17:23:00,
2013-01-14 09:33:00,35.0,3.0,-100.00,ESE,120,5.0,18.0,25,0.00,,,0.00,267.000000,,2013-01-14 17:33:00,
2013-01-14 09:43:00,35.0,3.0,-100.00,ESE,120,5.0,18.0,25,0.00,,,0.00,267.000000,,2013-01-14 17:43:00,
2013-01-14 09:53:00,35.0,3.0,-100.00,ESE,120,5.0,18.0,25,0.00,,,0.00,267.000000,,2013-01-14 17:53:00,
2013-01-14 10:02:00,35.0,3.0,-100.00,ESE,120,5.0,18.0,25,0.00,,,0.00,267.000000,,2013-01-14 18:02:00,
2013-01-14 10:33:00,40.0,5.0,-100.00,East,88,9.0,15.0,23,0.00,,,0.00,401.000000,,2013-01-14 18:33:00,
2013-01-14 10:43:00,40.0,5.0,-100.00,East,88,9.0,15.0,23,0.00,,,0.00,401.000000,,2013-01-14 18:43:00,
2013-01-14 10:53:00,40.0,5.0,-100.00,East,88,9.0,15.0,23,0.00,,,0.00,401.000000,,2013-01-14 18:53:00,
2013-01-14 11:02:00,40.0,5.0,-100.00,East,88,9.0,15.0,23,0.00,,,0.00,401.000000,,2013-01-14 19:02:00,
2013-01-14 11:03:00,41.0,-2.0,-100.00,ENE,75,6.0,17.0,16,0.00,,,0.00,489.000000,,2013-01-14 19:03:00,
2013-01-14 11:33:00,41.0,-2.0,-100.00,ENE,75,6.0,17.0,16,0.00,,,0.00,489.000000,,2013-01-14 19:33:00,
2013-01-14 11:43:00,41.0,-2.0,-100.00,ENE,75,6.0,17.0,16,0.00,,,0.00,489.000000,,2013-01-14 19:43:00,
2013-01-14 11:53:00,41.0,-2.0,-100.00,ENE,75,6.0,17.0,16,0.00,,,0.00,489.000000,,2013-01-14 19:53:00,
2013-01-14 12:33:00,45.0,-10.0,-100.00,NE,42,7.0,19.0,9,0.00,,,0.00,500.000000,,2013-01-14 20:33:00,
2013-01-14 12:43:00,45.0,-10.0,-100.00,NE,42,7.0,19.0,9,0.00,,,0.00,500.000000,,2013-01-14 20:43:00,
2013-01-14 12:53:00,45.0,-10.0,-100.00,NE,42,7.0,19.0,9,0.00,,,0.00,500.000000,,2013-01-14 20:53:00,
2013-01-14 13:02:00,45.0,-10.0,-100.00,NE,42,7.0,19.0,9,0.00,,,0.00,500.000000,,2013-01-14 21:02:00,
2013-01-14 13:23:00,43.0,-14.0,-100.00,NNE,27,8.0,24.0,8,0.00,,,0.00,456.000000,,2013-01-14 21:23:00,
2013-01-14 13:33:00,43.0,-14.0,-100.00,NNE,27,8.0,24.0,8,0.00,,,0.00,456.000000,,2013-01-14 21:33:00,
2013-01-14 13:43:00,43.0,-14.0,-100.00,NNE,27,8.0,24.0,8,0.00,,,0.00,456.000000,,2013-01-14 21:43:00,
2013-01-14 13:53:00,43.0,-14.0,-100.00,NNE,27,8.0,24.0,8,0.00,,,0.00,456.000000,,2013-01-14 21:53:00,
2013-01-14 14:02:00,43.0,-14.0,-100.00,NNE,27,8.0,24.0,8,0.00,,,0.00,456.000000,,2013-01-14 22:02:00,
2013-01-14 14:23:00,45.0,-10.0,-100.00,NNE,14,8.0,18.0,9,0.00,,,0.00,353.000000,,2013-01-14 22:23:00,
2013-01-14 14:33:00,45.0,-10.0,-100.00,NNE,14,8.0,18.0,9,0.00,,,0.00,353.000000,,2013-01-14 22:33:00,
2013-01-14 14:43:00,45.0,-10.0,-100.00,NNE,14,8.0,18.0,9,0.00,,,0.00,353.000000,,2013-01-14 22:43:00,
2013-01-14 14:52:00,45.0,-10.0,-100.00,NNE,14,8.0,18.0,9,0.00,,,0.00,353.000000,,2013-01-14 22:52:00,
2013-01-14 15:02:00,45.0,-10.0,-100.00,NNE,14,8.0,18.0,9,0.00,,,0.00,353.000000,,2013-01-14 23:02:00,
2013-01-14 15:33:00,40.0,-8.0,-100.00,NE,53,11.0,20.0,12,0.00,,,0.00,207.000000,,2013-01-14 23:33:00,
2013-01-14 15:43:00,40.0,-8.0,-100.00,NE,53,11.0,20.0,12,0.00,,,0.00,207.000000,,2013-01-14 23:43:00,
2013-01-14 15:53:00,40.0,-8.0,-100.00,NE,53,11.0,20.0,12,0.00,,,0.00,207.000000,,2013-01-14 23:53:00,
2013-01-14 16:02:00,40.0,-8.0,-100.00,NE,53,11.0,20.0,12,0.00,,,0.00,207.000000,,2013-01-15 00:02:00,
2013-01-14 16:23:00,41.0,-9.0,-100.00,NNE,19,11.0,18.0,11,0.00,,,0.00,24.000000,,2013-01-15 00:23:00,
2013-01-14 16:33:00,41.0,-9.0,-100.00,NNE,19,11.0,18.0,11,0.00,,,0.00,24.000000,,2013-01-15 00:33:00,
2013-01-14 16:43:00,41.0,-9.0,-100.00,NNE,19,11.0,18.0,11,0.00,,,0.00,24.000000,,2013-01-15 00:43:00,
2013-01-14 16:53:00,41.0,-9.0,-100.00,NNE,19,11.0,18.0,11,0.00,,,0.00,24.000000,,2013-01-15 00:53:00,
2013-01-14 17:02:00,41.0,-9.0,-100.00,NNE,19,11.0,18.0,11,0.00,,,0.00,24.000000,,2013-01-15 01:02:00,
2013-01-14 17:32:00,34.0,-4.0,-100.00,NE,36,6.0,17.0,19,0.00,,,-99.99,0.000000,,2013-01-15 01:32:00,
2013-01-14 17:43:00,34.0,-4.0,-100.00,NE,36,6.0,17.0,19,0.00,,,-99.99,0.000000,,2013-01-15 01:43:00,
2013-01-14 17:52:00,34.0,-4.0,-100.00,NE,36,6.0,17.0,19,0.00,,,-99.99,0.000000,,2013-01-15 01:52:00,
2013-01-14 18:02:00,34.0,-4.0,-100.00,NE,36,6.0,17.0,19,0.00,,,-99.99,0.000000,,2013-01-15 02:02:00,
2013-01-14 18:33:00,28.0,-2.0,-100.00,NNE,30,4.0,12.0,27,0.00,,,0.00,0.000000,,2013-01-15 02:33:00,
2013-01-14 18:42:00,28.0,-2.0,-100.00,NNE,30,4.0,12.0,27,0.00,,,0.00,0.000000,,2013-01-15 02:42:00,
2013-01-14 18:53:00,28.0,-2.0,-100.00,NNE,30,4.0,12.0,27,0.00,,,0.00,0.000000,,2013-01-15 02:53:00,
2013-01-14 19:02:00,28.0,-2.0,-100.00,NNE,30,4.0,12.0,27,0.00,,,0.00,0.000000,,2013-01-15 03:02:00,
2013-01-14 19:33:00,31.0,-6.0,-100.00,NE,46,6.0,12.0,19,0.00,,,0.00,0.000000,,2013-01-15 03:33:00,
2013-01-14 19:42:00,31.0,-6.0,-100.00,NE,46,6.0,12.0,19,0.00,,,0.00,0.000000,,2013-01-15 03:42:00,
2013-01-14 19:52:00,31.0,-6.0,-100.00,NE,46,6.0,12.0,19,0.00,,,0.00,0.000000,,2013-01-15 03:52:00,
2013-01-14 20:02:00,31.0,-6.0,-100.00,NE,46,6.0,12.0,19,0.00,,,0.00,0.000000,,2013-01-15 04:02:00,
2013-01-14 20:03:00,32.0,-4.0,-100.00,NE,34,5.0,10.0,20,0.00,,,0.00,0.000000,,2013-01-15 04:03:00,
2013-01-14 20:33:00,32.0,-4.0,-100.00,NE,34,5.0,10.0,20,0.00,,,0.00,0.000000,,2013-01-15 04:33:00,
2013-01-14 20:42:00,32.0,-4.0,-100.00,NE,34,5.0,10.0,20,0.00,,,0.00,0.000000,,2013-01-15 04:42:00,
2013-01-14 20:52:00,32.0,-4.0,-100.00,NE,34,5.0,10.0,20,0.00,,,0.00,0.000000,,2013-01-15 04:52:00,
2013-01-14 21:22:00,34.0,-7.0,-100.00,NE,45,10.0,19.0,16,0.00,,,0.00,0.000000,,2013-01-15 05:22:00,
2013-01-14 21:33:00,34.0,-7.0,-100.00,NE,45,10.0,19.0,16,0.00,,,0.00,0.000000,,2013-01-15 05:33:00,
2013-01-14 21:42:00,34.0,-7.0,-100.00,NE,45,10.0,19.0,16,0.00,,,0.00,0.000000,,2013-01-15 05:42:00,
2013-01-14 21:52:00,34.0,-7.0,-100.00,NE,45,10.0,19.0,16,0.00,,,0.00,0.000000,,2013-01-15 05:52:00,
2013-01-14 22:02:00,34.0,-7.0,-100.00,NE,45,10.0,19.0,16,0.00,,,0.00,0.000000,,2013-01-15 06:02:00,
2013-01-14 22:22:00,33.0,-7.0,-100.00,ENE,67,8.0,24.0,17,0.00,,,0.00,0.000000,,2013-01-15 06:22:00,
2013-01-14 22:33:00,33.0,-7.0,-100.00,ENE,67,8.0,24.0,17,0.00,,,0.00,0.000000,,2013-01-15 06:33:00,
2013-01-14 22:43:00,33.0,-7.0,-100.00,ENE,67,8.0,24.0,17,0.00,,,0.00,0.000000,,2013-01-15 06:43:00,
2013-01-14 22:52:00,33.0,-7.0,-100.00,ENE,67,8.0,24.0,17,0.00,,,0.00,0.000000,,2013-01-15 06:52:00,
2013-01-14 23:02:00,33.0,-7.0,-100.00,ENE,67,8.0,24.0,17,0.00,,,0.00,0.000000,,2013-01-15 07:02:00,
2013-01-14 23:33:00,33.0,-7.0,-100.00,East,88,5.0,24.0,17,0.00,,,0.00,0.000000,,2013-01-15 07:33:00,
2013-01-14 23:42:00,33.0,-7.0,-100.00,East,88,5.0,24.0,17,0.00,,,0.00,0.000000,,2013-01-15 07:42:00,
2013-01-14 23:52:00,33.0,-7.0,-100.00,East,88,5.0,24.0,17,0.00,,,0.00,0.000000,,2013-01-15 07:52:00,